Theta_e
318 320 318 319 324 326 325 324 325 325 325 325 326 327 326 325 323 322 321 321 320 319 319 320 320 320 320 320 319 319 320 319 318 318 317 316 316 315 315 314 314 314 316 315 315 316 315 314 314 314 314 314
317 317 317 315 319 325 326 324 325 325 326 326 327 326 325 324 322 321 321 321 319 316 317 318 319 319 320 319 319 319 318 318 317 316 315 315 315 315 314 314 313 313 315 315 314 314 314 314 314 313 313 313
314 314 314 313 315 323 325 325 325 325 326 327 326 325 324 323 321 320 321 321 316 314 317 318 318 319 319 319 319 318 317 316 316 314 314 314 314 314 314 314 313 312 313 314 313 312 312 313 312 312 311 311
318 315 314 315 318 321 323 324 325 325 327 326 324 324 323 322 320 320 321 319 315 315 317 317 317 318 317 318 317 316 316 315 315 314 313 314 314 314 314 313 313 312 312 313 312 311 311 311 311 311 310 310
322 320 317 320 323 324 322 323 325 326 326 324 323 323 323 322 321 321 320 317 315 315 316 316 316 317 317 316 316 315 315 314 314 313 313 314 314 314 313 313 313 311 311 311 311 310 310 310 310 310 310 309
323 323 321 323 326 326 323 323 325 326 325 322 322 322 323 322 322 321 319 317 315 314 315 316 316 316 316 315 314 314 313 313 313 313 314 314 314 313 313 313 312 311 311 310 310 310 310 310 309 309 309 308
322 323 323 324 326 327 324 323 324 325 324 322 322 322 323 323 322 320 316 315 314 313 314 315 315 316 315 314 313 313 313 313 313 313 314 313 313 313 312 312 311 310 310 310 310 310 309 309 308 308 308 307
320 321 322 323 325 326 324 324 324 325 324 322 322 323 323 323 321 319 316 315 312 311 312 314 315 315 314 313 312 312 312 313 313 314 314 313 313 312 312 311 310 310 310 309 309 309 309 308 308 308 307 307
319 319 320 322 325 325 324 324 324 324 323 321 322 322 323 322 320 319 318 315 310 309 311 313 313 313 313 312 311 311 312 313 313 313 313 313 313 312 311 310 309 310 309 309 309 308 308 308 308 308 307 307
319 317 319 322 325 325 325 325 324 323 322 321 322 322 323 322 320 319 316 313 309 308 310 311 311 310 311 311 311 312 312 313 313 313 313 312 312 312 311 310 309 309 309 308 308 308 308 308 307 307 307 307
320 318 319 322 324 325 325 324 325 323 321 321 322 322 322 321 320 317 315 311 308 308 309 310 309 308 310 311 312 313 312 313 313 312 312 311 312 311 310 310 309 309 308 307 308 308 307 308 307 307 307 307
321 320 320 321 323 325 325 324 325 323 322 321 321 321 321 320 318 316 314 311 307 307 308 308 308 308 310 311 312 313 312 312 312 312 311 310 311 311 310 309 309 308 307 307 307 308 307 307 307 307 307 307
321 321 321 320 322 324 324 324 324 323 322 320 320 320 320 319 317 315 312 308 307 307 306 307 307 307 309 311 312 312 312 311 311 310 310 310 310 310 309 308 308 307 307 306 306 307 307 307 307 306 306 307
320 321 321 321 321 322 322 323 324 323 321 320 319 320 318 316 315 314 310 307 307 306 305 305 305 306 308 310 311 310 310 310 309 309 309 309 309 309 308 307 307 307 306 306 305 306 306 306 306 306 306 306
318 319 319 320 321 322 322 322 323 322 320 319 319 318 316 313 312 311 309 307 307 306 304 303 304 305 307 309 309 308 309 309 308 309 309 309 308 308 307 307 306 306 306 305 305 305 305 305 305 305 305 305
317 316 316 318 320 321 322 322 322 320 319 318 317 317 315 313 311 308 307 306 306 305 303 302 301 303 306 308 308 308 308 307 308 308 309 308 307 307 306 306 306 305 305 305 304 304 304 304 304 304 305 306
316 314 313 315 319 320 321 322 321 319 317 316 316 317 314 313 311 308 307 306 305 303 301 301 300 302 306 306 308 309 308 308 309 308 308 307 306 306 306 305 305 304 304 304 304 303 303 303 303 304 304 305
314 314 312 313 317 317 316 318 318 316 316 315 316 316 313 312 311 308 307 306 303 302 300 300 300 302 305 306 308 309 308 307 308 307 307 306 305 305 304 305 304 304 303 303 303 303 303 303 303 303 303 304
313 313 313 312 313 313 312 314 315 315 316 317 316 314 312 311 309 307 307 305 302 299 299 300 301 302 304 306 308 309 307 305 305 306 306 306 305 303 303 304 303 303 303 303 303 303 303 303 302 302 301 303
312 312 312 311 310 310 311 312 312 313 315 316 315 312 310 309 307 306 306 304 301 298 299 301 302 303 303 305 307 307 306 304 304 304 305 305 305 303 302 302 303 302 302 303 303 302 302 302 302 301 301 301
311 311 312 311 311 310 310 309 309 310 312 313 313 311 309 308 307 306 305 305 302 298 299 302 303 303 303 305 305 305 304 303 303 302 303 303 303 303 301 300 302 302 302 302 302 302 302 302 302 301 301 300
311 310 310 311 311 311 310 309 309 309 310 311 311 311 309 308 306 305 305 305 304 300 298 301 302 301 303 304 304 303 302 301 301 301 300 300 300 301 300 298 299 301 302 302 302 302 301 301 301 301 301 300
309 309 309 310 310 310 310 309 309 308 309 310 309 310 309 307 305 304 305 305 305 303 299 298 300 300 299 300 301 300 300 300 300 300 299 297 298 299 299 297 297 299 301 302 302 302 301 301 301 301 301 300
308 308 308 308 309 309 309 309 309 308 309 310 309 308 309 308 306 304 304 304 304 304 302 299 298 298 298 298 299 298 299 299 298 298 296 295 296 297 298 297 295 297 300 301 301 301 301 301 301 301 301 300
307 307 307 307 308 308 308 309 309 309 308 309 309 308 309 309 308 305 304 304 303 304 302 300 298 298 298 298 297 297 297 298 297 295 294 295 295 295 296 297 295 296 299 300 301 301 301 301 301 301 300 300
305 306 306 306 306 307 307 308 309 309 308 308 309 309 309 309 308 305 303 303 303 303 302 301 300 300 299 298 297 297 296 296 296 294 293 294 294 294 293 294 294 294 297 299 300 300 300 300 300 300 300 300
304 305 305 305 305 306 306 307 307 309 309 308 308 309 309 309 308 305 304 304 304 304 303 302 302 301 300 299 299 298 297 296 295 294 293 294 294 293 292 291 292 293 295 297 299 300 299 299 299 299 298 298
302 303 304 305 305 305 305 305 305 306 308 307 307 308 308 308 307 306 305 305 304 304 303 303 303 302 301 301 300 300 299 298 296 295 294 294 294 293 292 290 290 291 293 295 297 299 299 298 297 297 297 296
302 302 303 304 304 305 305 305 305 305 306 307 307 307 307 307 307 306 306 305 305 305 304 304 304 303 302 302 301 301 300 300 299 298 296 295 294 293 292 291 290 290 291 292 294 296 297 296 295 295 294 294
301 301 301 302 303 304 304 304 304 304 305 305 306 306 306 306 306 306 306 305 305 306 306 306 305 304 304 303 302 301 301 301 300 300 299 298 296 294 293 292 291 290 290 291 292 293 294 294 294 293 293 292
301 301 301 301 301 302 303 303 303 303 304 304 304 304 304 305 305 305 306 306 306 306 307 307 306 305 305 305 304 303 302 301 301 300 300 299 298 297 295 293 292 291 290 290 290 291 291 291 292 292 292 291
Wind_Speed
26 27 23 24 26 28 28 29 29 29 31 31 30 28 27 27 25 22 22 25 24 23 24 26 26 24 22 20 21 20 21 21 15 14 15 11 11 11 11 12 13 15 16 18 20 17 17 18 17 16 14 13
28 31 29 26 25 28 28 29 30 31 31 30 31 31 31 28 27 23 23 24 19 18 19 21 26 23 20 19 20 19 20 19 15 14 14 12 12 12 13 13 13 16 18 18 20 18 15 16 15 15 13 12
33 32 33 29 25 27 28 29 30 32 32 30 33 33 32 29 27 23 22 21 14 16 17 17 22 22 21 20 19 20 19 17 15 14 13 12 13 14 15 14 14 17 18 16 17 18 16 16 16 15 13 11
38 35 34 33 30 30 29 29 31 32 32 33 35 34 33 31 26 21 20 18 12 17 18 18 20 20 21 20 19 20 19 16 14 13 13 13 15 16 17 16 15 16 17 15 15 17 17 18 17 15 13 11
37 38 34 37 37 33 30 31 32 32 35 37 36 35 33 29 25 22 22 19 13 16 19 19 21 20 21 20 18 18 17 16 14 14 14 16 17 18 18 18 17 15 15 15 16 17 19 19 17 15 13 11
29 36 37 39 40 36 33 34 33 34 38 39 37 35 31 26 24 23 20 16 14 18 21 21 21 20 20 20 17 16 16 15 16 16 16 18 19 20 20 18 15 15 16 17 18 19 19 19 17 15 12 11
21 29 36 37 37 38 38 36 35 37 40 40 38 34 28 26 24 21 18 15 13 17 21 22 22 20 19 19 17 16 18 17 19 20 20 21 22 21 19 16 14 15 18 18 20 21 19 19 17 14 13 12
17 22 31 34 35 39 39 37 37 41 44 41 39 33 28 27 25 20 17 17 13 14 21 23 23 22 20 19 18 19 22 22 24 25 24 24 22 20 17 14 13 15 18 19 20 20 19 18 16 15 16 13
18 20 27 32 37 39 37 37 37 42 45 40 37 34 31 29 24 18 16 16 13 13 19 23 24 24 22 20 21 23 24 25 25 25 24 23 20 19 17 14 13 16 18 19 20 19 18 17 15 16 16 13
19 20 23 30 38 40 38 38 39 42 42 38 34 31 30 28 23 18 15 15 14 14 17 22 23 22 22 21 24 24 24 24 23 23 22 21 20 17 17 15 14 16 16 17 19 18 16 16 16 16 15 15
20 23 22 26 36 40 39 39 40 43 41 37 33 29 28 26 22 17 15 14 13 14 16 20 22 21 21 23 24 24 23 23 22 22 22 21 19 17 16 16 16 17 15 15 18 17 16 16 16 16 15 16
20 25 26 26 33 39 37 38 40 43 41 37 34 31 28 24 19 16 15 13 13 14 15 19 22 21 23 24 24 23 23 23 22 21 21 20 18 16 16 15 17 18 16 16 17 17 16 16 15 16 17 16
21 25 30 31 34 37 36 37 40 43 43 39 35 31 26 22 19 15 13 13 14 14 14 17 21 22 24 26 25 24 23 22 22 21 19 18 16 15 14 14 16 17 16 17 18 17 16 17 16 16 17 17
23 24 30 36 39 39 36 39 42 44 43 38 34 30 25 20 17 14 12 13 15 14 15 17 20 23 25 27 26 24 24 23 21 20 18 17 15 14 14 14 16 16 16 18 19 18 16 17 17 16 17 18
22 23 28 36 41 40 39 42 43 43 41 38 33 27 21 16 12 12 14 15 15 14 15 17 20 24 27 27 26 24 23 22 20 17 16 15 14 14 14 15 16 17 17 18 19 19 18 17 17 17 17 19
20 24 29 35 38 38 39 41 42 43 41 36 30 24 18 12 9 12 15 15 14 14 15 17 20 24 27 27 25 23 21 21 19 17 16 15 14 14 15 15 17 17 17 19 19 19 18 17 18 18 18 19
18 21 24 32 36 37 38 40 41 43 41 34 28 23 19 13 10 12 15 15 15 14 15 18 20 23 27 26 24 24 22 21 20 17 15 14 14 14 15 16 18 18 18 19 18 18 18 18 18 18 18 20
15 18 19 25 34 37 39 40 40 38 34 29 24 22 20 16 13 14 16 16 15 15 16 18 20 22 25 25 25 26 24 21 20 18 16 15 14 14 16 17 18 19 19 19 18 19 19 19 19 18 19 21
10 14 18 21 27 31 34 37 37 33 27 25 24 22 20 17 15 15 15 15 14 14 16 19 20 21 23 24 25 26 25 22 20 19 18 17 16 15 16 18 19 19 20 20 19 20 20 19 18 18 19 21
9 9 13 16 18 22 27 31 34 34 31 28 23 17 15 14 14 14 13 14 12 11 16 20 21 21 22 25 27 27 25 22 21 21 20 19 18 17 16 18 20 20 21 21 21 21 20 19 18 18 18 20
11 10 10 13 15 17 19 22 25 27 27 23 15 10 11 11 12 13 12 12 11 11 15 19 20 19 20 23 24 23 22 21 21 21 20 20 19 17 16 18 21 22 22 23 22 22 21 20 20 19 18 19
10 11 11 10 12 15 16 16 16 16 17 14 9 7 9 10 10 11 11 11 11 11 14 17 17 16 17 20 20 19 18 18 19 18 18 19 19 18 16 17 20 23 24 24 24 23 22 22 21 21 21 20
7 7 8 8 8 10 12 14 13 12 12 8 6 6 6 7 9 9 9 11 10 10 12 14 15 14 15 17 17 16 16 16 16 16 16 17 17 16 16 16 18 22 25 26 26 25 24 24 23 23 23 23
7 4 3 5 6 8 11 14 15 14 13 9 7 7 8 7 9 10 10 10 10 10 11 12 13 12 12 13 14 14 15 15 14 14 14 15 15 15 16 16 18 22 25 27 27 27 26 26 25 25 26 25
10 5 2 3 6 10 13 18 19 15 13 13 11 10 10 10 9 10 11 10 9 9 11 12 12 12 12 12 13 13 13 13 13 12 12 13 15 15 16 17 18 21 25 27 28 28 28 27 27 27 27 28
12 9 5 2 5 9 13 17 17 14 14 15 15 14 14 12 11 11 11 11 11 11 11 12 12 12 12 13 14 14 13 13 13 12 12 14 16 16 16 17 18 21 24 27 28 28 27 27 28 29 29 30
13 11 9 6 5 7 11 13 13 14 16 16 17 18 17 15 15 13 13 13 13 13 13 13 13 12 13 14 14 14 14 14 14 14 13 15 16 15 15 17 18 21 23 26 27 26 25 24 24 27 30 32
15 12 10 9 8 7 8 10 11 13 17 18 20 22 19 18 18 16 15 15 14 14 14 14 14 13 14 14 14 14 14 14 14 14 14 15 16 16 16 17 18 20 22 25 27 24 22 22 21 21 24 26
17 14 11 9 10 10 8 8 10 12 15 17 20 22 21 20 20 19 18 17 15 15 14 14 15 15 15 15 15 15 14 14 13 13 13 15 16 16 17 17 17 19 22 25 27 25 22 19 17 19 21 19
17 16 14 10 8 9 10 9 9 10 12 15 18 20 21 21 21 20 19 18 17 16 15 16 16 16 16 16 17 17 16 15 15 14 15 15 15 16 16 17 17 20 21 24 26 27 27 23 19 17 16 14
16 16 16 14 10 7 7 9 9 10 11 13 15 17 19 21 22 22 21 19 18 18 18 19 19 19 19 18 18 18 18 18 17 16 16 16 16 16 16 18 19 20 21 23 24 25 27 28 26 23 19 16
Wind_Direction
256 247 259 267 241 224 224 230 224 215 215 212 206 200 196 192 190 185 186 200 209 210 210 207 202 203 204 201 203 202 206 209 194 200 214 201 180 187 194 189 187 181 179 183 186 183 174 176 179 184 192 196
250 251 255 266 254 233 226 227 224 220 216 208 203 200 194 187 188 192 195 206 216 205 200 201 202 205 202 197 198 197 203 203 194 205 209 192 177 181 191 193 194 190 186 182 187 192 185 182 181 181 183 190
243 251 250 253 251 240 235 229 223 221 215 202 197 198 195 190 191 194 199 212 215 188 186 192 196 202 199 193 195 199 203 201 201 206 197 185 177 182 191 190 192 195 191 182 184 189 184 181 179 176 175 180
241 247 246 243 242 237 237 231 224 220 212 198 194 196 193 190 190 194 209 221 208 184 190 194 194 201 200 196 199 201 203 201 202 200 188 181 180 185 190 187 189 193 192 183 178 179 175 175 177 175 173 177
244 246 244 237 234 230 232 230 222 217 207 194 191 194 193 193 195 207 222 226 211 194 195 197 198 201 201 201 201 201 203 203 201 192 183 179 182 188 188 187 187 185 184 179 174 174 174 175 176 175 178 187
247 244 241 233 227 223 226 226 218 211 200 192 192 193 195 199 205 216 221 218 208 199 197 198 198 196 199 205 202 200 200 198 192 184 181 180 184 191 189 187 185 179 177 177 175 176 177 177 173 173 183 189
246 239 239 233 223 218 220 219 218 214 200 194 196 193 196 205 210 216 217 214 209 203 202 202 202 197 200 209 206 197 192 187 184 180 179 182 187 191 190 190 189 179 176 177 177 178 179 177 175 179 185 181
240 234 239 238 225 219 217 213 215 213 204 199 198 196 202 208 207 210 218 223 220 208 204 206 209 207 207 214 208 192 186 186 184 181 183 186 189 190 187 191 190 180 177 178 179 179 178 179 182 187 184 175
237 238 243 239 226 222 219 214 211 205 199 199 199 199 204 205 203 207 219 225 223 209 203 207 211 212 214 211 199 191 189 191 189 186 188 189 190 189 187 191 192 181 177 180 183 181 180 182 183 184 182 179
242 246 246 235 224 222 218 215 213 204 199 200 201 202 204 202 199 203 215 221 215 202 201 207 209 209 207 197 192 194 193 194 192 190 190 189 191 193 189 192 195 187 185 187 186 183 183 184 184 185 184 181
252 250 250 240 225 220 217 215 214 208 202 201 203 208 209 202 196 198 209 216 207 197 200 205 204 195 189 188 191 195 194 194 192 192 192 190 194 196 192 194 196 192 197 198 187 182 182 185 189 187 184 182
268 252 244 239 225 219 217 217 216 210 205 203 206 209 204 196 194 197 207 213 200 196 199 198 195 188 185 191 193 193 196 197 195 195 196 195 197 198 196 197 197 195 201 202 190 183 182 186 190 185 183 186
279 254 237 232 226 220 217 218 217 212 207 203 203 204 198 193 193 194 204 206 195 196 196 193 195 193 191 193 197 197 198 201 201 200 201 201 202 202 203 205 201 199 203 203 196 190 187 188 193 190 189 192
267 250 235 229 224 218 217 220 217 212 207 202 200 197 193 194 196 202 210 198 191 197 197 194 197 198 196 197 201 204 204 205 207 208 207 207 209 208 209 212 206 203 206 204 199 199 200 197 200 200 198 199
245 230 222 220 218 215 215 216 214 211 206 201 198 191 188 193 202 214 212 195 191 197 199 197 198 200 200 198 200 208 210 209 211 213 210 208 212 216 217 216 208 207 212 209 202 202 206 206 207 207 204 203
233 209 199 201 208 212 213 212 209 207 203 197 191 187 191 201 208 208 201 190 191 195 197 197 197 199 201 198 198 206 212 210 211 209 207 210 213 219 222 219 213 211 216 217 211 205 204 206 208 208 205 201
241 214 194 190 197 202 207 211 210 203 197 191 186 187 194 200 204 202 199 192 190 194 196 197 195 196 198 196 193 199 205 205 207 207 207 214 216 218 221 220 218 217 216 219 217 210 207 208 209 212 209 203
261 233 209 192 193 196 196 201 206 200 191 187 189 194 193 191 193 194 201 200 195 196 196 195 194 195 196 192 190 198 207 207 208 214 215 219 221 219 220 220 221 221 218 219 218 212 211 213 214 217 216 209
288 246 221 204 198 195 189 189 193 195 200 205 201 198 190 184 184 187 198 205 207 201 194 192 192 194 193 190 194 202 213 213 210 217 221 224 228 224 222 220 221 222 220 218 216 211 211 215 218 219 217 212
310 273 243 234 217 201 193 189 187 190 202 211 204 196 189 181 183 189 196 202 210 206 195 193 192 195 195 193 198 205 214 216 213 216 221 227 231 229 227 223 221 221 220 219 216 213 212 215 218 220 218 214
317 304 277 259 246 233 214 198 191 187 189 194 192 194 197 193 190 193 194 194 199 200 198 198 196 198 199 198 204 210 215 220 221 222 224 229 229 227 228 227 224 221 220 221 219 216 216 216 218 221 221 217
318 313 304 282 257 253 244 223 209 193 183 181 182 194 204 200 191 187 189 190 193 192 194 200 202 204 207 209 212 216 220 222 226 230 233 232 225 221 224 227 227 225 221 220 220 219 219 220 220 222 224 224
331 329 319 300 266 247 236 224 216 204 197 196 197 218 232 206 185 186 197 200 198 193 191 193 197 203 210 216 219 220 223 225 229 235 236 228 219 218 224 228 229 228 225 222 222 224 224 225 226 227 229 230
348 350 324 280 256 236 209 189 189 198 205 211 213 229 250 227 195 195 206 210 207 201 200 194 190 195 204 214 219 221 226 229 233 237 237 231 223 222 224 228 227 225 226 226 226 227 229 231 232 234 235 236
354 347 297 215 217 221 205 182 177 193 210 215 214 218 233 232 211 203 205 212 218 213 208 200 194 196 201 209 215 219 225 232 236 233 234 234 230 227 227 231 230 224 223 226 229 230 232 235 238 240 241 241
357 348 331 258 206 205 210 198 188 201 219 218 219 220 223 226 218 208 205 210 217 218 213 203 197 201 208 212 212 212 214 221 227 224 226 231 229 227 229 233 235 231 225 224 228 232 236 240 243 245 246 247
3 350 341 320 264 214 214 217 212 217 222 221 229 229 224 226 223 213 212 216 220 220 216 208 203 205 212 217 217 215 213 214 217 216 220 229 230 230 231 232 235 236 232 229 229 230 235 242 247 249 249 249
11 359 343 329 309 270 231 224 224 225 223 225 232 230 224 226 226 222 222 225 229 229 225 219 214 214 220 225 228 227 224 222 220 219 222 228 231 231 231 232 234 235 233 233 231 229 231 238 244 250 250 250
12 8 352 330 314 299 274 244 226 222 225 228 230 229 227 227 228 229 228 229 233 236 236 233 228 227 228 232 236 235 233 232 232 232 232 235 237 237 235 235 237 236 233 232 232 231 231 232 238 248 253 256
8 10 6 350 321 301 291 276 251 232 228 228 228 230 231 232 233 235 233 233 236 239 244 245 242 239 237 239 240 240 240 238 237 235 236 240 244 245 244 242 240 239 236 234 233 233 234 235 239 250 256 259
2 6 10 7 355 327 297 282 271 256 243 236 232 232 233 232 233 235 236 236 238 240 243 247 248 245 243 243 243 243 244 241 239 239 240 242 245 248 249 247 244 242 239 238 236 235 237 239 242 248 253 255